This is the latest recevied weather packets stored in our database for station/object N5PLO-10. If no packets are shown the sender has not sent any weather packets the latest 10 day(s).
| Time | Temp. | Humidity | Pressure | Rain* | Wind** | Luminosity | Snow |
|---|---|---|---|---|---|---|---|
| 1777752088 | 25.56° C | 44% | 1023.8 hPa | 0 mm | - | 680 W/m² | - |
| 1777751786 | 25.56° C | 44% | 1023.8 hPa | 0 mm | - | 685 W/m² | - |
| 1777751481 | 24.44° C | 43% | 1024 hPa | 0 mm | - | 694 W/m² | - |
| 1777751179 | 23.89° C | 45% | 1024.2 hPa | 0 mm | - | 706 W/m² | - |
| 1777750875 | 25° C | 44% | 1024.3 hPa | 0 mm | - | 713 W/m² | - |
| 1777750572 | 25° C | 45% | 1024.2 hPa | 0 mm | - | 720 W/m² | - |
| 1777750268 | 25° C | 44% | 1024.3 hPa | 0 mm | - | 718 W/m² | - |
| 1777749964 | 25° C | 46% | 1024.4 hPa | 0 mm | - | 734 W/m² | - |
| 1777749662 | 25.56° C | 46% | 1024.5 hPa | 0 mm | - | 739 W/m² | - |
| 1777749358 | 25° C | 48% | 1024.4 hPa | 0 mm | - | 744 W/m² | - |
| 1777749056 | 25.56° C | 44% | 1024.4 hPa | 0 mm | - | 751 W/m² | - |
| 1777748754 | 25° C | 46% | 1024.4 hPa | 0 mm | - | 755 W/m² | - |
| 1777748450 | 25.56° C | 47% | 1024.3 hPa | 0 mm | - | 756 W/m² | - |
| 1777748145 | 23.89° C | 45% | 1024.4 hPa | 0 mm | - | 762 W/m² | - |
| 1777747843 | 26.11° C | 44% | 1024.4 hPa | 0 mm | - | 768 W/m² | - |
| 1777747538 | 24.44° C | 49% | 1024.4 hPa | 0 mm | - | 769 W/m² | - |
| 1777747234 | 25° C | 48% | 1024.5 hPa | 1.78 mm | - | 771 W/m² | - |
| 1777746931 | 24.44° C | 47% | 1024.5 hPa | 0 mm | - | 771 W/m² | - |
| 1777746627 | 24.44° C | 47% | 1024.6 hPa | 0 mm | - | 698 W/m² | - |
| 1777746322 | 24.44° C | 44% | 1024.7 hPa | 0 mm | - | 793 W/m² | - |
| 1777746018 | 24.44° C | 49% | 1024.7 hPa | 0 mm | - | 787 W/m² | - |
| 1777745716 | 24.44° C | 50% | 1024.8 hPa | 0 mm | - | 794 W/m² | - |
| 1777745415 | 24.44° C | 46% | 1024.7 hPa | 0 mm | - | 780 W/m² | - |
| 1777745111 | 23.33° C | 50% | 1024.8 hPa | 0 mm | - | 777 W/m² | - |
| 1777744808 | 23.33° C | 48% | 1024.9 hPa | 0 mm | - | 773 W/m² | - |
* Rain latest hour (hover to see other rain measurements)
** Current wind speed in m/s (hover to see current wind gust speed)